• In Hungary
  • List of Countries
  • For 7 days
  • Water Temperature
  • Satellite Maps
  • Weather Map
  • News
  • Weather Widgets
  • user-avatar
    Login

    Hourly Weather Quatro Barras

    Today, 14 November, Wednesday

    Time Temperature Precipitation Wind Pressure Humidity
    00:00 +22°C° 0 mm 1 mps 682 mmHg 93%
    01:00 +22°C° 0 mm 1 mps 682 mmHg 93%
    02:00 +20°C° 0 mm 0 mps 681 mmHg 93%
    03:00 +20°C° 0 mm 0 mps 681 mmHg 93%
    04:00 +22°C° 0 mm 1 mps 681 mmHg 92%
    05:00 +22°C° 0 mm 1 mps 681 mmHg 92%
    06:00 +22°C° 0 mm 1 mps 681 mmHg 91%
    07:00 +24°C° 0.2 mm 1 mps 681 mmHg 83%
    08:00 +26°C° 0.2 mm 2 mps 682 mmHg 75%
    09:00 +28°C° 0.2 mm 2 mps 682 mmHg 67%
    10:00 +28°C° 0.5 mm 2 mps 682 mmHg 67%
    11:00 +29°C° 0.5 mm 2 mps 682 mmHg 67%
    12:00 +29°C° 0.5 mm 2 mps 682 mmHg 67%
    13:00 +29°C° 0.5 mm 2 mps 682 mmHg 66%
    14:00 +29°C° 0.5 mm 2 mps 681 mmHg 66%
    15:00 +29°C° 0.5 mm 2 mps 681 mmHg 66%
    16:00 +27°C° 1.1 mm 1 mps 681 mmHg 75%
    17:00 +25°C° 1.1 mm 1 mps 681 mmHg 84%
    18:00 +24°C° 1.1 mm 1 mps 680 mmHg 93%
    19:00 +23°C° 0.6 mm 1 mps 681 mmHg 94%
    20:00 +23°C° 0.6 mm 1 mps 681 mmHg 95%
    21:00 +22°C° 0.6 mm 1 mps 681 mmHg 96%
    22:00 +22°C° 0.3 mm 1 mps 681 mmHg 96%
    23:00 +20°C° 0.3 mm 0 mps 681 mmHg 96%

    Tomorrow, 15 November, Thursday

    Time Temperature Precipitation Wind Pressure Humidity
    00:00 +20°C° 0.3 mm 0 mps 681 mmHg 97%
    01:00 +19°C° 0.3 mm 0 mps 681 mmHg 97%
    02:00 +19°C° 0.3 mm 0 mps 681 mmHg 98%
    03:00 +19°C° 0.3 mm 0 mps 680 mmHg 98%
    04:00 +21°C° 0.3 mm 1 mps 681 mmHg 98%
    05:00 +21°C° 0.3 mm 1 mps 681 mmHg 98%
    06:00 +21°C° 0.3 mm 1 mps 681 mmHg 98%
    07:00 +21°C° 0.1 mm 1 mps 682 mmHg 96%
    08:00 +21°C° 0.1 mm 1 mps 682 mmHg 94%
    09:00 +19°C° 0.1 mm 2 mps 683 mmHg 92%
    10:00 +20°C° 0.1 mm 2 mps 683 mmHg 85%
    11:00 +21°C° 0.1 mm 2 mps 683 mmHg 79%
    12:00 +23°C° 0.1 mm 2 mps 683 mmHg 72%
    13:00 +23°C° 0 mm 2 mps 683 mmHg 69%
    14:00 +23°C° 0 mm 2 mps 683 mmHg 67%
    15:00 +24°C° 0 mm 2 mps 682 mmHg 65%
    16:00 +23°C° 0 mm 2 mps 682 mmHg 67%
    17:00 +21°C° 0 mm 2 mps 683 mmHg 70%
    18:00 +20°C° 0 mm 2 mps 683 mmHg 73%
    19:00 +19°C° 0 mm 2 mps 683 mmHg 78%
    20:00 +18°C° 0 mm 1 mps 683 mmHg 82%
    21:00 +16°C° 0 mm 1 mps 684 mmHg 87%
    22:00 +16°C° 0 mm 1 mps 684 mmHg 89%
    23:00 +15°C° 0 mm 1 mps 684 mmHg 90%

    Day after tomorrow, 16 November, Friday

    Time Temperature Precipitation Wind Pressure Humidity
    00:00 +15°C° 0 mm 1 mps 684 mmHg 92%
    01:00 +15°C° 0 mm 1 mps 684 mmHg 93%
    02:00 +14°C° 0 mm 1 mps 684 mmHg 94%
    03:00 +14°C° 0 mm 1 mps 684 mmHg 96%
    04:00 +14°C° 0 mm 1 mps 684 mmHg 96%
    05:00 +14°C° 0 mm 1 mps 684 mmHg 95%
    06:00 +15°C° 0 mm 1 mps 684 mmHg 95%
    07:00 +18°C° 0 mm 1 mps 685 mmHg 85%
    08:00 +20°C° 0 mm 1 mps 686 mmHg 75%
    09:00 +23°C° 0 mm 2 mps 687 mmHg 65%
    10:00 +24°C° 0 mm 2 mps 687 mmHg 62%
    11:00 +26°C° 0 mm 2 mps 687 mmHg 58%
    12:00 +27°C° 0 mm 2 mps 687 mmHg 54%
    13:00 +27°C° 0 mm 2 mps 686 mmHg 55%
    14:00 +27°C° 0 mm 2 mps 686 mmHg 57%
    15:00 +26°C° 0 mm 2 mps 685 mmHg 59%
    16:00 +25°C° 0 mm 2 mps 685 mmHg 65%
    17:00 +23°C° 0 mm 2 mps 685 mmHg 71%
    18:00 +21°C° 0 mm 2 mps 685 mmHg 78%
    19:00 +19°C° 0 mm 2 mps 686 mmHg 82%
    20:00 +18°C° 0 mm 2 mps 686 mmHg 87%
    21:00 +16°C° 0 mm 1 mps 687 mmHg 92%
    22:00 +16°C° 0 mm 1 mps 687 mmHg 93%
    23:00 +15°C° 0 mm 1 mps 687 mmHg 94%

    17 November, Saturday

    Time Temperature Precipitation Wind Pressure Humidity
    00:00 +15°C° 0 mm 1 mps 686 mmHg 95%
    01:00 +14°C° 0 mm 1 mps 686 mmHg 95%
    02:00 +14°C° 0 mm 1 mps 685 mmHg 96%
    03:00 +14°C° 0 mm 1 mps 685 mmHg 96%
    04:00 +14°C° 0 mm 1 mps 685 mmHg 96%
    05:00 +14°C° 0 mm 1 mps 685 mmHg 95%
    06:00 +14°C° 0 mm 1 mps 685 mmHg 95%
    07:00 +16°C° 0 mm 1 mps 686 mmHg 85%
    08:00 +19°C° 0 mm 1 mps 687 mmHg 76%
    09:00 +21°C° 0 mm 2 mps 687 mmHg 66%
    10:00 +23°C° 0 mm 2 mps 687 mmHg 63%
    11:00 +25°C° 0 mm 2 mps 687 mmHg 59%
    12:00 +27°C° 0 mm 2 mps 687 mmHg 55%
    13:00 +27°C° 0 mm 2 mps 686 mmHg 54%
    14:00 +28°C° 0 mm 2 mps 686 mmHg 54%
    15:00 +28°C° 0 mm 2 mps 685 mmHg 54%
    16:00 +27°C° 0 mm 2 mps 685 mmHg 61%
    17:00 +25°C° 0 mm 2 mps 684 mmHg 67%
    18:00 +24°C° 0 mm 2 mps 684 mmHg 74%
    19:00 +23°C° 0 mm 1 mps 684 mmHg 81%
    20:00 +21°C° 0 mm 1 mps 684 mmHg 87%
    21:00 +19°C° 0 mm 1 mps 684 mmHg 94%
    22:00 +19°C° 0 mm 1 mps 683 mmHg 95%
    23:00 +19°C° 0 mm 1 mps 683 mmHg 96%

    18 November, Sunday

    Time Temperature Precipitation Wind Pressure Humidity
    00:00 +19°C° 0 mm 1 mps 682 mmHg 96%
    01:00 +19°C° 0 mm 1 mps 682 mmHg 97%
    02:00 +19°C° 0 mm 1 mps 681 mmHg 97%
    03:00 +19°C° 0 mm 1 mps 681 mmHg 97%
    04:00 +19°C° 0 mm 1 mps 681 mmHg 95%
    05:00 +20°C° 0 mm 1 mps 681 mmHg 94%
    06:00 +19°C° 0 mm 2 mps 681 mmHg 92%
    07:00 +21°C° 0 mm 2 mps 681 mmHg 84%
    08:00 +22°C° 0 mm 3 mps 681 mmHg 76%
    09:00 +25°C° 0 mm 3 mps 681 mmHg 68%
    10:00 +25°C° 0 mm 3 mps 681 mmHg 71%
    11:00 +24°C° 0 mm 3 mps 681 mmHg 73%
    12:00 +24°C° 0 mm 3 mps 681 mmHg 75%
    13:00 +25°C° 0 mm 3 mps 680 mmHg 71%
    14:00 +27°C° 0 mm 4 mps 680 mmHg 66%
    15:00 +28°C° 0 mm 4 mps 679 mmHg 62%
    16:00 +25°C° 0.9 mm 3 mps 679 mmHg 72%
    17:00 +21°C° 0.9 mm 3 mps 679 mmHg 82%
    18:00 +18°C° 0.9 mm 2 mps 679 mmHg 92%
    19:00 +18°C° 0.1 mm 2 mps 680 mmHg 93%
    20:00 +17°C° 0.1 mm 2 mps 680 mmHg 94%
    21:00 +18°C° 0.1 mm 1 mps 681 mmHg 94%
    22:00 +18°C° 0.1 mm 1 mps 681 mmHg 95%
    23:00 +18°C° 0.1 mm 1 mps 682 mmHg 96%

    19 November, Monday

    Time Temperature Precipitation Wind Pressure Humidity
    00:00 +18°C° 0.1 mm 1 mps 682 mmHg 97%
    01:00 +18°C° 0.1 mm 1 mps 682 mmHg 97%
    02:00 +16°C° 0.1 mm 1 mps 682 mmHg 97%
    03:00 +16°C° 0.1 mm 1 mps 682 mmHg 97%
    04:00 +16°C° 0.1 mm 1 mps 682 mmHg 97%
    05:00 +15°C° 0.1 mm 2 mps 683 mmHg 96%
    06:00 +14°C° 0.1 mm 2 mps 683 mmHg 96%
    07:00 +15°C° 0 mm 2 mps 684 mmHg 86%
    08:00 +16°C° 0 mm 2 mps 685 mmHg 76%
    09:00 +17°C° 0 mm 2 mps 685 mmHg 66%
    10:00 +19°C° 0 mm 2 mps 685 mmHg 61%
    11:00 +20°C° 0 mm 2 mps 686 mmHg 57%
    12:00 +21°C° 0 mm 2 mps 686 mmHg 53%
    13:00 +21°C° 0 mm 2 mps 685 mmHg 56%
    14:00 +20°C° 0 mm 2 mps 685 mmHg 59%
    15:00 +20°C° 0 mm 3 mps 684 mmHg 62%
    16:00 +19°C° 0 mm 2 mps 684 mmHg 67%
    17:00 +17°C° 0 mm 2 mps 684 mmHg 72%
    18:00 +16°C° 0 mm 2 mps 684 mmHg 77%
    19:00 +15°C° 0 mm 2 mps 685 mmHg 82%
    20:00 +14°C° 0 mm 2 mps 685 mmHg 88%
    21:00 +13°C° 0 mm 1 mps 685 mmHg 93%
    22:00 +13°C° 0 mm 1 mps 685 mmHg 93%
    23:00 +13°C° 0 mm 1 mps 685 mmHg 93%
    Show more